Weather History for 71215 - December, 2013

Change the Weather History Date:

Saturday, December 28, 2013

  Actual Average Record
Temperature  
Mean Temperature 24 °F -  
Max Temperature 30 °F - - ()
Min Temperature 17 °F - - ()
Degree Days  
Heating Degree Days 42    
Moisture  
Dew Point 26 °F    
Average Humidity 96    
Maximum Humidity 100    
Minimum Humidity 88    
Precipitation  
Precipitation 0.00 in - - ()
Sea Level Pressure  
Sea Level Pressure 30.48 in    
Wind  
Wind Speed 1 mph ()    
Max Wind Speed 2 mph    
Max Gust Speed -    
T = Trace of Precipitation, MM = Missing Value Source: Averaged Metar Reports

Daily Weather History Graph

Daily Weather History Graph

Search for Another Location

Airport or City:

Trip Planner

Search our weather history database for the weather conditions in past years. The results will help you decide how hot, cold, wet, or windy it might be!

Date:

Astronomy

Dec. 28, 2013 Rise Set
Actual Time 7:51 AM PST 4:07 PM PST
Civil Twilight 7:14 AM PST 4:44 PM PST
Nautical Twilight 6:33 AM PST 5:25 PM PST
Astronomical Twilight 5:55 AM PST 6:03 PM PST
Moon 3:22 AM PST (12/28) 1:12 PM PST (12/28)
Length of Visible Light 9h 30m
Length of Day
8h 15m
Waning Crescent, 18% of the Moon is Illuminated
Dec 28
Waning Crescent
Jan 1
New
Jan 7
First Quarter
Jan 15
Full
Jan 23
Last Quarter

Hourly Weather History & Observations

Time (PST) Temp. Dew Point Humidity Pressure Visibility Wind Dir Wind Speed Gust Speed Precip Events Conditions
12:00 AM 28.2 °F 27.0 °F 95% 30.32 in - East 2.3 mph - N/A   Unknown
1:00 AM 27.9 °F 26.1 °F 93% 30.35 in - SSW 1.2 mph - N/A   Unknown
2:00 AM 28.0 °F 26.2 °F 93% 30.38 in - NNW 1.2 mph - N/A   Unknown
3:00 AM 28.4 °F 26.6 °F 93% 30.41 in - WSW 1.2 mph - N/A   Unknown
4:00 AM 28 °F 26 °F 90% 30.41 in - Calm Calm - -  
4:00 AM 29.3 °F 26.2 °F 88% 30.41 in - Calm Calm - N/A   Unknown
5:00 AM 23.7 °F 22.6 °F 96% 30.44 in - NE 1.2 mph - N/A   Unknown
6:00 AM 21.4 °F 20.7 °F 97% 30.46 in - ENE 1.2 mph - N/A   Unknown
7:00 AM 19.2 °F 18.5 °F 97% 30.48 in - South 1.2 mph - N/A   Unknown
8:00 AM 18.3 °F 17.6 °F 97% 30.49 in - West 1.2 mph - N/A   Unknown
9:00 AM 22.1 °F 21.6 °F 98% 30.51 in - SSE 1.2 mph - N/A   Unknown
10:00 AM 25 °F 24 °F 94% 30.53 in - Calm Calm - -  
10:00 AM 25.2 °F 25.7 °F 100% 30.53 in - Calm Calm - N/A   Unknown
11:00 AM 27.7 °F 26.4 °F 95% 30.53 in - North 1.2 mph - N/A   Unknown
12:00 PM 29.8 °F 27.9 °F 92% 30.51 in - Calm Calm - N/A   Unknown
1:00 PM 29.8 °F 27.7 °F 92% 30.51 in - South 2.3 mph - N/A   Unknown
2:00 PM 29.7 °F 27.7 °F 92% 30.50 in - SW 2.3 mph - N/A   Unknown
3:00 PM 29.8 °F 28.4 °F 94% 30.51 in - SSE 1.2 mph - N/A   Unknown
4:00 PM 29 °F 28 °F 97% 30.53 in - SSW 1.2 mph - -  
4:00 PM 29.5 °F 28.4 °F 96% 30.53 in - SSW 1.2 mph - N/A   Unknown
5:00 PM 29.1 °F 28.2 °F 96% 30.53 in - West 1.2 mph - N/A   Unknown
6:00 PM 28.4 °F 27.9 °F 98% 30.53 in - South 2.3 mph - N/A   Unknown
7:00 PM 27.9 °F 27.7 °F 99% 30.53 in - Calm Calm - N/A   Unknown
8:00 PM 27.3 °F 27.1 °F 99% 30.53 in - South 2.3 mph - N/A   Unknown
9:00 PM 27.1 °F 27.1 °F 100% 30.53 in - South 1.2 mph - N/A   Unknown
10:00 PM 27 °F 27 °F 98% 30.53 in - SSW 1.2 mph - -  
10:00 PM 26.8 °F 26.6 °F 99% 30.53 in - SSW 1.2 mph - N/A   Unknown
11:00 PM 26.6 °F 26.4 °F 99% 30.51 in - ESE 2.3 mph - N/A   Unknown